CW4884 Weather Reports


time (UTC)temp
C
wind
direction
speed
KPH
gust
KPH
rain 1hr
cm
rain 24hr
cm
rain mn
cm
humidity
%
barometer
mb
20260505041601 12 92 8.0 0.0 0.00 0.00 0.00 44 1009.3
20260505040054 12 63 4.8 0.0 0.00 0.00 0.00 44 1009.1
20260505034531 12 70 1.6 0.0 0.00 0.00 0.00 44 1008.9
20260505033132 12 69 6.4 0.0 0.00 0.00 0.00 44 1008.8
20260505031506 13 77 4.8 0.0 0.00 0.00 0.00 44 1008.7
20260505030012 13 94 3.2 0.0 0.00 0.00 0.00 43 1008.3
20260505024521 13 67 8.0 0.0 0.00 0.00 0.00 42 1008.0
20260505023114 14 47 6.4 0.0 0.00 0.00 0.00 41 1007.8
20260505021555 14 26 8.0 0.0 0.00 0.00 0.00 40 1007.5
20260505020058 15 325 3.2 0.0 0.00 0.00 0.00 40 1007.2
20260505014536 15 66 6.4 0.0 0.00 0.00 0.00 39 1007.0
20260505013036 16 64 6.4 0.0 0.00 0.00 0.00 38 1006.8
20260505011527 17 22 6.4 0.0 0.00 0.00 0.00 36 1006.7
20260505010019 17 29 8.0 0.0 0.00 0.00 0.00 36 1006.5
20260505004520 17 65 3.2 0.0 0.00 0.00 0.00 37 1006.5
20260505003008 17 63 4.8 0.0 0.00 0.00 0.00 38 1006.6
20260505001507 17 78 4.8 0.0 0.00 0.00 0.00 37 1006.5
20260505000011 17 67 8.0 0.0 0.00 0.00 0.00 38 1006.3
20260504234507 18 32 6.4 0.0 0.00 0.00 0.00 39 1006.1
20260504233006 18 18 4.8 0.0 0.00 0.00 0.00 38 1006.0
20260504231516 18 74 6.4 0.0 0.00 0.00 0.00 36 1005.9
20260504230049 18 74 4.8 0.0 0.00 0.00 0.00 37 1005.8
20260504224536 19 134 6.4 0.0 0.00 0.00 0.00 35 1005.9
20260504223035 19 43 6.4 0.0 0.00 0.00 0.00 36 1005.9
20260504221552 19 98 6.4 0.0 0.00 0.00 0.00 35 1005.8
20260504220030 19 147 4.8 0.0 0.00 0.00 0.00 38 1005.9
20260504214530 18 38 3.2 0.0 0.00 0.00 0.00 38 1005.9
20260504213029 18 148 6.4 0.0 0.00 0.00 0.00 35 1006.0
20260504211544 18 127 6.4 0.0 0.00 0.00 0.00 36 1006.1
20260504210054 19 163 6.4 0.0 0.00 0.00 0.00 35 1006.1
20260504204622 19 230 6.4 0.0 0.00 0.00 0.00 35 1006.1
20260504203042 19 175 6.4 0.0 0.00 0.00 0.00 40 1006.3
20260504201540 18 72 4.8 0.0 0.00 0.00 0.00 38 1006.4
20260504200041 18 89 6.4 0.0 0.00 0.00 0.00 36 1006.4
20260504194547 18 65 6.4 0.0 0.00 0.00 0.00 36 1006.5
20260504193036 18 136 4.8 0.0 0.00 0.00 0.00 38 1006.5
20260504191533 17 66 4.8 0.0 0.00 0.00 0.00 41 1006.7
20260504190009 17 83 3.2 0.0 0.00 0.00 0.00 40 1006.9
20260504184608 17 54 3.2 0.0 0.00 0.00 0.00 40 1007.1
20260504183102 17 46 4.8 0.0 0.00 0.00 0.00 39 1007.1
20260504181556 17 88 6.4 0.0 0.00 0.00 0.00 39 1007.1
20260504180100 16 59 8.0 0.0 0.00 0.00 0.00 41 1007.3
20260504174505 16 75 8.0 0.0 0.00 0.00 0.00 40 1007.4
20260504173002 16 69 6.4 0.0 0.00 0.00 0.00 40 1007.5
20260504171503 16 71 4.8 0.0 0.00 0.00 0.00 40 1007.7
20260504081558 11 16 3.2 0.0 0.00 0.00 0.00 58 1005.6
20260504050018 12 23 0.0 0.0 0.00 0.00 0.00 55 1005.2
20260504044538 13 24 0.0 0.0 0.00 0.00 0.00 53 1005.1
20260504043028 13 344 0.0 0.0 0.00 0.00 0.00 53 1005.0